"Pseudo-MPEC" for P11Criu

Created 2022 Dec 11 13:22:15 UT using Find_Orb

Click here for an explanation of pseudo-MPECs

 
 Astrometry: 
     P11Criu* C2022 12 02!p7TJAstrometryrs?Wdredacted;sV7BX3nm1s74Ea.QM#'d$R!F51
     P11Criu  C2022 12 022M,v*po:a7Lt`s_30MXclickKhereTA[D^y#j5lfor'Ahek8%R)+F51
     P11Criu  C2022 12 02'C$@Vhni90o7.-6ewj!Dqv2\B$;tbU+explanation$vFD+9o.7#F51

Station data:
(F51) Pan-STARRS 1, Haleakala  (N20.707234 W156.255910)  US/Hawaii.
   Observers J. Bulger, T. Lowe, A. Schultz, M. Willman. Measurers K.
   Chambers, S. Chastel, T. de Boer, L. Denneau, J. Fairlamb, H. Flewelling,
   M. Huber, C.-C. Lin, E. Magnier, Y. Ramanjooloo, R. Wainscoat, R. Weryk.
   1.8-m Ritchey-Chrétien + CCD.

Orbital elements:  P11Criu
   Perihelion 2022 Apr 9.10731 +/- 97.7 TT =  2:34:31 (JD 2459678.60731)
Epoch 2022 Dec  2.0 TT = JDT 2459915.5   Earth MOID: 0.2471      AutoNEOCP
M 157.08575187 +/- 130              (J2000 ecliptic)
n   0.66310933 +/- 0.348            Peri.   33.13501 +/- 90
a   1.30240470 +/- 0.455            Node   237.61586 +/- 42
e   0.0385008 +/- 0.283             Incl.   19.15990 +/- 21
P   1.49/542.89d           H 22.33  G  0.15   U 12.0  SR
q 1.25226107 +/- 0.447    Q 1.35254833 +/- 29.6
From 3 observations 2022 Dec. 2 (52.7 min); mean residual 0".04
Residuals in arcseconds: 
221202 F51  .05-  .03-    221202 F51  .07+  .05+    221202 F51  .02-  .02-    

Ephemerides (geocentric):
Date (UTC) HH   RA             Dec           delta  r     elong  mag " sig PA
---- --------  ------------   ------------  ------ ------ -----  --- --------
2022 12 11 13  04 14 51.595   +00 55 07.92  .39513 1.3506 153.8 22.0  37d 175
2022 12 11 14  04 14 47.948   +00 53 37.84  .39528 1.3506 153.8 22.0  37d 175
2022 12 11 15  04 14 44.307   +00 52 07.89  .39542 1.3506 153.7 22.0  37d 175
2022 12 11 16  04 14 40.671   +00 50 38.08  .39556 1.3506 153.7 22.0  37d 175
2022 12 11 17  04 14 37.040   +00 49 08.39  .39571 1.3506 153.6 22.0  37d 175
2022 12 11 18  04 14 33.414   +00 47 38.83  .39585 1.3506 153.5 22.0  37d 175
2022 12 11 19  04 14 29.794   +00 46 09.39  .39600 1.3506 153.5 22.0  37d 175
2022 12 11 20  04 14 26.179   +00 44 40.09  .39614 1.3507 153.4 22.0  37d 175
2022 12 11 21  04 14 22.569   +00 43 10.91  .39629 1.3507 153.4 22.0  37d 175
2022 12 11 22  04 14 18.964   +00 41 41.87  .39643 1.3507 153.3 22.0  37d 175
2022 12 11 23  04 14 15.365   +00 40 12.95  .39658 1.3507 153.3 22.0  37d 175
2022 12 12 00  04 14 11.771   +00 38 44.16  .39672 1.3507 153.2 22.0  37d 175
2022 12 12 01  04 14 08.182   +00 37 15.50  .39687 1.3507 153.2 22.0  37d 176
2022 12 12 02  04 14 04.599   +00 35 46.97  .39702 1.3507 153.1 22.0  37d 176
2022 12 12 03  04 14 01.021   +00 34 18.57  .39716 1.3507 153.0 22.0  37d 176
2022 12 12 04  04 13 57.449   +00 32 50.30  .39731 1.3507 153.0 22.0  37d 176
2022 12 12 05  04 13 53.881   +00 31 22.16  .39746 1.3507 152.9 22.0  37d 176
2022 12 12 06  04 13 50.319   +00 29 54.15  .39761 1.3507 152.9 22.0  37d 176
2022 12 12 07  04 13 46.763   +00 28 26.26  .39776 1.3507 152.8 22.0  37d 176
2022 12 12 08  04 13 43.212   +00 26 58.51  .39790 1.3507 152.8 22.0  37d 176
2022 12 12 09  04 13 39.666   +00 25 30.88  .39805 1.3507 152.7 22.0  37d 176
2022 12 12 10  04 13 36.126   +00 24 03.39  .39820 1.3507 152.7 22.0  37d 176
2022 12 12 11  04 13 32.591   +00 22 36.03  .39835 1.3507 152.6 22.0  37d 176
2022 12 12 12  04 13 29.061   +00 21 08.79  .39850 1.3508 152.5 22.0  37d 176
2022 12 12 13  04 13 25.537   +00 19 41.69  .39865 1.3508 152.5 22.0  37d 175
2022 12 12 14  04 13 22.018   +00 18 14.71  .39880 1.3508 152.4 22.0  37d 175
2022 12 12 15  04 13 18.505   +00 16 47.87  .39895 1.3508 152.4 22.0  37d 175
2022 12 12 16  04 13 14.997   +00 15 21.15  .39910 1.3508 152.3 22.0  37d 175
2022 12 12 17  04 13 11.495   +00 13 54.57  .39926 1.3508 152.3 22.0  37d 175
2022 12 12 18  04 13 07.998   +00 12 28.12  .39941 1.3508 152.2 22.0  37d 175
2022 12 12 19  04 13 04.506   +00 11 01.79  .39956 1.3508 152.2 22.0  37d 175
2022 12 12 20  04 13 01.020   +00 09 35.60  .39971 1.3508 152.1 22.0  37d 175
2022 12 12 21  04 12 57.540   +00 08 09.54  .39986 1.3508 152.0 22.0  37d 175
2022 12 12 22  04 12 54.065   +00 06 43.60  .40002 1.3508 152.0 22.0  37d 175
2022 12 12 23  04 12 50.595   +00 05 17.80  .40017 1.3508 151.9 22.0  37d 175
2022 12 13 00  04 12 47.131   +00 03 52.13  .40032 1.3508 151.9 22.0  37d 175
2022 12 13 01  04 12 43.673   +00 02 26.59  .40048 1.3508 151.8 22.0  37d 175
2022 12 13 02  04 12 40.220   +00 01 01.18  .40063 1.3508 151.8 22.0  37d 175
2022 12 13 03  04 12 36.772   -00 00 24.10  .40079 1.3508 151.7 22.1  37d 175
2022 12 13 04  04 12 33.330   -00 01 49.24  .40094 1.3509 151.6 22.1  37d 175
2022 12 13 05  04 12 29.894   -00 03 14.26  .40110 1.3509 151.6 22.1  37d 175
2022 12 13 06  04 12 26.463   -00 04 39.15  .40125 1.3509 151.5 22.1  37d 175
2022 12 13 07  04 12 23.038   -00 06 03.90  .40141 1.3509 151.5 22.1  37d 175
2022 12 13 08  04 12 19.618   -00 07 28.53  .40156 1.3509 151.4 22.1  37d 175
2022 12 13 09  04 12 16.204   -00 08 53.02  .40172 1.3509 151.4 22.1  37d 174
2022 12 13 10  04 12 12.795   -00 10 17.38  .40187 1.3509 151.3 22.1  37d 174
2022 12 13 11  04 12 09.392   -00 11 41.61  .40203 1.3509 151.3 22.1  37d 174
2022 12 13 12  04 12 05.995   -00 13 05.71  .40219 1.3509 151.2 22.1  37d 174